FENGYUN 1C DEB, 30715

Orbit data source: Space-Track

FENGYUN 1C DEB, 30715 is space debris in SSO originally from a launch on Mon, 10 May 1999 UTC launched from the Taiyaun Space Center, China (TSC). Fengyun 1C debris stems from the Chinese weather satellite Fengyun-1C, which was intentionally destroyed by a Chinese anti-satellite missile in 2007. This event dramatically increased the amount of space debris, with thousands of trackable fragments posing hazards to satellites and human spaceflight. The Fengyun 1C debris cloud has become a focal point in discussions about space sustainability and the need for international regulations to prevent the creation of new debris.

Loading next visibility...
Identifier
30715, 1999-025ARZ
Orbit
SSO
Country
Flag of CNCN / PRC
Related business
Manufacturer
Unknown
Mission
Spacecraft
Bus & Motor
Unknown
Mass
Unknown
Launch date (UTC)
1999-05-10 (27 years ago)
Launch vehicle
Unknown
Launch site
Taiyaun Space Center, China (TSC)
Object type
Payload
Rocket body
Debris
Shape & HBR
Unknown shape, 0.1 m
Radar Cross Section
Medium (>0.1 m² and <1 m²)

Expand to show TLE details & history
Last TLE update: 4 days ago

TLE from 4 days ago
0 FENGYUN 1C DEB
1 30715U 99025ARZ 26206.14981015  .00002182  00000-0  11084-2 0  9995
2 30715  98.9631 281.5758 0063955 249.7068 109.7224 14.15939516993565
Epoch: 2026-07-25T03:35Z
TLE epoch observation values (Epoch: 2026-07-25T03:35:43.596Z)
Latitude
-0.00004°
Longitude
-75.22207°
Altitude
857.859 km
Speed
7.415 km/s
True Right ascension
18h 46m 18s
True Declination
0° 00' 00"
Sunlit
Object was in full shadow at epoch
Visualization orbit readout
Latitude
Unknown
Longitude
Unknown
Altitude
Unknown
Speed
Unknown
Apparent Right ascension
Unknown
Apparent Declination
Unknown
Sunlit
N/A
Visualization observer readout
Local Sidereal Time
09:45:07
Azimuth
Unknown
Elevation
Unknown
Doppler factor
Unknown
Orbital elements
Apogee altitude
882.434 km
Perigee altitude
790.154 km
Semi-major axis
7,214.431 km
Eccentricity
0.0064
Inclination
98.9631°
RAAN
281.5758°
Arg. of periapsis
249.7068°
True anomaly
110.41041°
Mean anomaly
109.7224°
Eccentric anomaly
110.06659°
Mean motion
3.54193 °/min
Orbital period
101.64 mins
BSTAR
0.0011084
Loading maneuver chart data...
Computing Atmospheric mass density...

Documentation

Showing up to 5 results
|